User: anonymous   Login
Location: Caltech
(34.1382°N, 118.1253°W)
Time: 03:58:55
(UTC-07:00)
Language:

ALOS - Orbit

View from above orbital plane
View from above orbital plane
View from above satellite
View from above satellite

Ground track
Ground track

The orbit data is extracted from the following two-line orbital elements,

1 28931U 06002A   17149.93741363 +.00000208 +00000-0 +49827-4 0  9993
2 28931 097.8445 178.2053 0002108 060.6110 299.5303 14.62354667604794
Epoch (UTC): 29 May 2017 22:29:52
Eccentricity: 0.0002108
inclination: 97.8445°
perigee height: 684 km
apogee height: 687 km
right ascension of ascending node: 178.2053°
argument of perigee: 60.6110°
revolutions per day: 14.62354667
mean anomaly at epoch: 299.5303°
orbit number at epoch: 60479

The dashed part of the orbit path shows where the satellite is in the earth's shadow,  

DLR